User: anonymous   Login
Location: D�derode
(51.8092°N, 10.1065°E)
Time: 01:48:35
(UTC+00:00)
Language:

H-2A R/B - Orbit

View from above orbital plane
View from above orbital plane
View from above satellite
View from above satellite

Ground track
Ground track

The orbit data is extracted from the following two-line orbital elements,

1 38341U 12025E   21059.44808488  .00000256  00000-0  37339-4 0  9992
2 38341  98.5221 237.4901 0056386 128.9596 231.6660 14.84176781475335
Epoch (UTC): 28 February 2021 10:45:14
Eccentricity: 0.0056386
inclination: 98.5221°
perigee height: 577 km
apogee height: 655 km
right ascension of ascending node: 237.4901°
argument of perigee: 128.9596°
revolutions per day: 14.84176781
mean anomaly at epoch: 231.6660°
orbit number at epoch: 47533

The dashed part of the orbit path shows where the satellite is in the earth's shadow,  

DLR